Miscellaneous Local Product
Issued by NWS North Platte, NE

Home | Current Version | Previous Version | Graphics & Text | Print | Product List | Glossary On
Versions: 1 2 3 4 5 6 7 8 9 10 11 12 13 14 15 16 17 18 19 20 21 22 23 24 25 26 27 28 29 30 31 32 33 34 35 36 37 38 39 40 41 42 43 44 45 46 47 48 49 50
000
AXUS43 KLBF 191410
MISLBF


WESTERN AND NORTH CENTRAL NEBRASKA HOURLY WEATHER ROUNDUP
NATIONAL WEATHER SERVICE NORTH PLATTE NE
900 AM CDT SUN OCT 19 2014

***STATIONS NOT REPORTING VARIABLES SUCH AS SKY/WEATHER OR
PRESSURE ARE PROVIDED BY THE NEBRASKA DEPARTMENT OF
ROADS...RAWS...AND APRS NETWORKS...AND ARE NOT UNDER
NATIONAL WEATHER SERVICE QUALITY CONTROL***

...OBSERVATIONS IN AND NEAR THE EASTERN PANHANDLE OF NEBRASKA...

CITY           SKY/WX    TMP DP  RH WIND       PRES   REMARKS
PINE RIDGE     CLEAR     37  35  92 CALM      30.05R
CHADRON        CLEAR     38  36  92 W3        30.06R
ALLIANCE       CLEAR     35  33  92 CALM      30.05R
SIDNEY         CLEAR     44  37  76 NW6       30.07R
WHITECLAY        N/A     35  33  90 CALM        N/A
RUSHVILLE        N/A     38  37  96 SW3         N/A
CRESCENT LAKE    N/A     40  38  94 NW3         N/A
LISCO            N/A     38  34  87 W6          N/A  WCI  33
BIG SPRINGS      N/A     34  32  93 CALM        N/A
LEWELLEN         N/A     38  36  92 W6          N/A  WCI  33
$$

...OBSERVATIONS IN NORTH CENTRAL NEBRASKA...

CITY           SKY/WX    TMP DP  RH WIND       PRES   REMARKS
VALENTINE      CLEAR     44  40  85 W5        29.99R
THEDFORD       PTCLDY    43  40  90 W3        30.02R
AINSWORTH      MOSUNNY   46  40  81 SW5       29.99R
O`NEILL        SUNNY     46  43  89 SW8       29.98R
ORD            SUNNY     47  41  80 SW3       30.01S
BROKEN BOW     SUNNY     47  42  83 S3        30.02R
BROWNLEE         N/A     46  42  86 SW5         N/A
SPRINGVIEW       N/A     43  40  88 CALM        N/A
BREWSTER         N/A     46  41  84 W5          N/A
ROSE             N/A     46  43  90 S6          N/A
NEWPORT          N/A     48  42  80 W9          N/A
SARGENT          N/A     44  42  91 CALM        N/A
COMSTOCK         N/A     49  44  83 SW10        N/A
CHAMBERS         N/A     48  43  83 S8          N/A
$$

...OBSERVATIONS IN SOUTHWEST NEBRASKA AND FAR NORTHEAST COLORADO...

CITY           SKY/WX    TMP DP  RH WIND       PRES   REMARKS
WRAY           FAIR      40  40 100 SW6       30.04R
HOLYOKE        FAIR      43  41  93 NW6       30.04R
IMPERIAL       CLEAR     40  37  89 CALM      30.03R
OGALLALA       CLEAR     37  36  96 CALM      30.04R
NORTH PLATTE   SUNNY     45  40  82 CALM      30.03R
MCCOOK         SUNNY     44  40  85 CALM      30.04S
LEXINGTON      SUNNY     46  43  87 S12       30.04S
PAXTON           N/A     34  31  89 CALM        N/A
SUTHERLAND       N/A     36  33  90 SW3         N/A
BRADY            N/A     41  38  89 CALM        N/A
GOTHENBURG       N/A     40  35  84 CALM        N/A
CALLAWAY         N/A     41  39  92 S5          N/A
$$

...SOME WEATHER OBSERVATIONS FROM AROUND THE REGION...

CITY           SKY/WX    TMP DP  RH WIND       PRES   REMARKS
DENVER         PTCLDY    51  35  54 SW9       30.12R
LARAMIE        CLEAR     36  28  73 S9        30.21R WCI  29
CHEYENNE       CLEAR     49  27  42 NW10      30.14R
SCOTTSBLUFF    CLEAR     41  38  89 NW8       30.08R
RAPID CITY     CLEAR     49  37  63 NW9       30.03R
PIERRE         CLEAR     46  41  82 SW7       29.93R
WINNER         FAIR      51  41  68 SW8       29.96R
SIOUX FALLS    MOSUNNY   47  40  76 SW10      29.95S
OMAHA          MOSUNNY   47  42  83 S9        30.09F
GRAND ISLAND   SUNNY     51  41  68 S17G24    30.04S
KANSAS CITY    PTSUNNY   48  45  89 S8        30.17S
WICHITA        MOSUNNY   50  45  83 S5        30.16R
HAYS           SUNNY     48  39  71 S6        30.08S
LIBERAL        SUNNY     52  39  62 S15       30.11R
GOODLAND       SUNNY     45  43  93 CALM      30.05R
$$



USA.gov is the U.S. government's official web portal to all federal, state and local government web resources and services.